Weather History for Greenwood, MS

Change the Weather History Date:

Friday, November 4, 2011

  Actual Average Record
Temperature  
Mean Temperature 50 °F 58 °F  
Max Temperature 59 °F 71 °F 84 °F (1987)
Min Temperature 40 °F 46 °F 23 °F (1991)
Degree Days  
Heating Degree Days 15 8  
Month to date heating degree days 40 30  
Since 1 July heating degree days 227 161  
Cooling Degree Days 0 1  
Month to date cooling degree days 0 4  
Year to date cooling degree days 2296 2146  
Moisture  
Dew Point 43 °F    
Average Humidity 75    
Maximum Humidity 92    
Minimum Humidity 57    
Precipitation  
Precipitation 0.00 in 0.12 in 2.02 in (1975)
Month to date precipitation 0.34 0.50  
Year to date precipitation 28.49 42.10  
Sea Level Pressure  
Sea Level Pressure 30.17 in    
Wind  
Wind Speed 5 mph (NNW)    
Max Wind Speed 12 mph    
Max Gust Speed 17 mph    
Visibility 9 miles    
Events Fog    
T = Trace of Precipitation, MM = Missing Value Source: NWS Daily Summary

Daily Weather History Graph

Daily Weather History Graph

Search for Another Location

Airport:

Trip Planner

Search our weather history database for the weather conditions in past years. The results will help you decide how hot, cold, wet, or windy it might be!

Date:

Astronomy

Nov. 04, 2011 Rise Set
Actual Time 7:21 AM CDT 6:05 PM CDT
Civil Twilight 6:55 AM CDT 6:31 PM CDT
Nautical Twilight 6:26 AM CDT 7:01 PM CDT
Astronomical Twilight 5:57 AM CDT 7:30 PM CDT
Moon 2:43 PM CDT (11/4) 1:49 AM CDT (11/4)
Length of Visible Light 11h 35m
Length of Day
10h 44m
Waxing Gibbous, 69% of the Moon is Illuminated
Nov 4
Waxing Gibbous
Nov 10
Full
Nov 18
Last Quarter
Nov 25
New
Dec 2
First Quarter

Hourly Weather History & Observations

Time (CDT) Temp. Dew Point Humidity Pressure Visibility Wind Dir Wind Speed Gust Speed Precip Events Conditions
12:53 AM 48.0 °F 39.0 °F 71% 30.10 in 10.0 mi Calm Calm - N/A   Overcast
1:53 AM 48.0 °F 39.0 °F 71% 30.11 in 10.0 mi West 4.6 mph - N/A   Overcast
2:09 AM 48.2 °F 39.2 °F 71% 30.11 in 10.0 mi Variable 3.5 mph - N/A   Overcast
2:53 AM 48.2 °F 39.2 °F 71% 30.11 in 10.0 mi Variable 4.6 mph - N/A   Overcast
3:53 AM 46.9 °F 39.0 °F 74% 30.12 in 10.0 mi WNW 4.6 mph - N/A   Overcast
4:53 AM 46.9 °F 39.9 °F 77% 30.12 in 10.0 mi NW 4.6 mph - N/A   Overcast
5:53 AM 46.9 °F 41.0 °F 80% 30.13 in 10.0 mi NW 3.5 mph - N/A   Overcast
6:53 AM 46.9 °F 41.0 °F 80% 30.14 in 10.0 mi Calm Calm - N/A   Overcast
7:53 AM 46.9 °F 42.1 °F 83% 30.17 in 10.0 mi NW 4.6 mph - N/A   Overcast
8:53 AM 48.0 °F 42.1 °F 80% 30.19 in 10.0 mi NW 4.6 mph - N/A   Overcast
9:53 AM 50.0 °F 44.1 °F 80% 30.21 in 10.0 mi NNW 5.8 mph - N/A   Overcast
10:53 AM 54.0 °F 45.0 °F 72% 30.21 in 10.0 mi North 9.2 mph - N/A   Overcast
11:27 AM 55.4 °F 44.6 °F 67% 30.20 in 10.0 mi NNE 5.8 mph - N/A   Scattered Clouds
11:53 AM 59.0 °F 45.0 °F 60% 30.19 in 10.0 mi North 10.4 mph 17.3 mph N/A   Scattered Clouds
12:12 PM 59.0 °F 44.6 °F 59% 30.19 in 10.0 mi Variable 6.9 mph - N/A   Mostly Cloudy
12:53 PM 57.9 °F 45.0 °F 62% 30.18 in 10.0 mi NNW 6.9 mph - N/A   Overcast
1:53 PM 57.9 °F 45.0 °F 62% 30.16 in 10.0 mi North 6.9 mph - N/A   Overcast
2:53 PM 57.0 °F 45.0 °F 64% 30.16 in 10.0 mi NNW 8.1 mph - N/A   Overcast
3:53 PM 57.9 °F 46.9 °F 67% 30.15 in 10.0 mi North 4.6 mph - N/A   Overcast
4:53 PM 57.9 °F 46.0 °F 65% 30.15 in 10.0 mi North 6.9 mph - N/A   Overcast
5:53 PM 57.0 °F 46.9 °F 69% 30.16 in 10.0 mi North 5.8 mph - N/A   Overcast
6:42 PM 55.4 °F 48.2 °F 77% 30.17 in 10.0 mi North 4.6 mph - N/A   Overcast
6:53 PM 55.4 °F 48.2 °F 77% 30.17 in 10.0 mi North 4.6 mph - N/A   Overcast
7:53 PM 55.0 °F 48.0 °F 77% 30.18 in 10.0 mi North 4.6 mph - N/A   Overcast
8:53 PM 54.0 °F 46.0 °F 75% 30.17 in 10.0 mi NE 4.6 mph - N/A   Overcast
9:06 PM 51.8 °F 46.4 °F 82% 30.18 in 10.0 mi Calm Calm - N/A   Mostly Cloudy
9:53 PM 48.9 °F 45.0 °F 86% 30.19 in 10.0 mi Calm Calm - N/A   Mostly Cloudy
10:53 PM 45.0 °F 43.0 °F 93% 30.20 in 2.0 mi Calm Calm - N/A   Clear
11:00 PM 44.6 °F 42.8 °F 93% 30.19 in 1.0 mi Calm Calm - N/A   Clear
11:15 PM 42.8 °F 42.8 °F 100% 30.19 in 0.5 mi Calm Calm - N/A Fog Fog
11:38 PM 42.8 °F 39.2 °F 87% 30.19 in 0.2 mi Calm Calm - N/A Fog Fog
11:53 PM 42.1 °F 39.9 °F 92% 30.19 in 0.2 mi Calm Calm - N/A Fog Fog